Location: Grand Rapids
(42.9630°N, 85.6680°W)
Time: 03:34:27
(UTC-04:00)

S-56A Canister/Altair - Visible Passes

Search period start: 30 May 2024 00:00
Search period end: 09 June 2024 00:00
Orbit: 638 x 2488 km, 38.9° (Epoch: 29 May)

Date Brightness Start Highest point End Pass type
(mag) Time Alt. Az. Time Alt. Az. Time Alt. Az.
30 May 11.1 02:34:53 16° SSE 02:39:13 18° SE 02:47:41 10° E visible
30 May 10.4 04:32:12 16° SSW 04:43:49 45° SSE 04:55:36 10° E visible
31 May 11.1 02:02:37 15° SE 02:05:12 16° SE 02:12:27 10° E visible
31 May 10.4 03:59:55 20° SSW 04:09:32 41° SSE 04:21:34 10° E visible
01 Jun 11.2 01:30:16 13° SE 01:31:14 13° SE 01:36:29 10° ESE visible
01 Jun 10.5 03:27:34 24° S 03:35:17 38° SE 03:47:25 10° E visible
01 Jun 10.0 05:26:01 10° WSW 05:40:50 65° SSE 05:52:52 10° E visible
02 Jun 10.5 02:55:08 26° S 03:01:02 35° SE 03:13:08 10° E visible
02 Jun 10.1 04:52:25 12° SW 05:06:26 62° SSE 05:19:01 10° E visible
03 Jun 10.5 02:22:37 27° SSE 02:26:50 31° SE 02:38:41 10° E visible
03 Jun 10.1 04:19:54 17° SW 04:32:02 59° SSE 04:45:03 10° E visible
04 Jun 10.6 01:50:01 26° SSE 01:52:42 28° SE 02:04:04 10° E visible
04 Jun 10.1 03:47:18 22° SW 03:57:37 56° SSE 04:11:00 10° E visible
05 Jun 10.7 01:17:20 24° SE 01:18:38 24° SE 01:29:13 10° E visible
05 Jun 10.1 03:14:37 27° SSW 03:23:13 53° SSE 03:36:50 10° E visible
05 Jun 10.0 05:14:17 10° WSW 05:29:22 74° S 05:42:12 10° E visible
06 Jun 10.8 00:44:33 20° SE 00:44:37 20° SE 00:54:07 10° E visible
06 Jun 10.2 02:41:49 31° SSW 02:48:51 49° SSE 03:02:33 10° E visible
06 Jun 10.0 04:39:55 10° WSW 04:54:52 72° S 05:08:15 10° E visible
07 Jun 10.9 00:11:39 17° ESE 00:11:39 17° ESE 00:18:40 10° E visible
07 Jun 10.2 02:08:54 33° S 02:14:32 45° SE 02:28:10 10° E visible
07 Jun 10.0 04:06:10 12° WSW 04:20:21 70° SSE 04:34:13 10° E visible
07 Jun 11.0 23:38:37 13° ESE 23:38:37 13° ESE 23:42:35 10° E visible
08 Jun 10.1 01:35:51 34° S 01:40:17 41° SE 01:53:40 10° E visible
08 Jun 10.0 03:33:05 15° WSW 03:45:50 68° SSE 04:00:04 10° E visible
